Wind_Speed
8 8 5 5 5 5 5 5 6 6 7 6 6 6 7 8 8 8 8 8 9 9 9 8 8 8 9 8 8 8 8 8 8 8 8 8 8 7 7 6 7 7 8
9 8 7 6 6 6 6 6 7 7 7 7 7 7 7 8 8 9 9 9 9 10 10 10 10 10 10 10 10 10 9 10 10 10 10 9 9 9 9 8 8 8 9
10 9 8 7 6 6 6 6 7 6 7 7 6 6 8 8 9 9 9 10 10 10 11 11 11 11 11 11 11 11 11 11 11 11 11 11 11 11 11 11 10 10 10
10 9 8 8 7 7 6 6 6 6 7 7 7 7 7 8 8 9 11 11 11 12 12 12 12 12 13 12 12 12 13 13 13 12 12 12 12 12 13 13 12 12 12
11 11 9 9 8 8 7 7 7 8 8 8 8 7 7 8 9 9 10 11 11 12 12 12 13 13 13 13 13 13 14 14 14 14 14 13 14 13 13 13 13 13 13
12 12 10 10 10 9 9 9 8 9 9 8 8 8 8 9 9 9 10 11 11 12 13 12 12 13 13 13 14 15 15 15 15 14 15 15 15 14 15 15 15 15 15
11 11 11 10 10 10 10 10 9 9 9 9 8 8 8 8 8 9 10 10 10 11 11 12 12 13 14 14 15 15 15 16 15 15 15 15 16 16 15 16 16 16 16
12 12 11 11 12 12 12 12 11 10 9 9 9 9 10 9 10 10 11 11 11 11 11 12 13 13 13 14 14 15 16 16 16 16 16 16 16 17 16 16 17 17 17
13 13 12 13 13 13 13 13 13 12 12 12 12 12 11 11 11 11 12 12 12 12 13 13 14 15 15 15 15 15 16 17 18 17 17 17 17 18 18 18 18 18 18
15 14 14 14 14 14 14 14 14 14 13 13 13 13 13 13 13 12 12 13 13 14 14 15 15 15 16 17 16 16 18 18 18 19 19 18 18 18 19 20 19 19 19
16 16 15 15 15 15 15 15 15 15 14 14 13 13 13 14 15 15 14 15 15 15 16 17 17 17 18 18 18 19 18 19 19 19 19 20 20 20 19 20 20 20 20
18 18 17 17 16 16 17 17 17 16 15 15 15 15 15 15 16 16 16 16 16 16 17 17 17 18 19 19 20 20 19 20 20 20 20 20 20 20 21 21 21 22 22
19 18 18 17 18 19 19 19 18 17 17 17 17 17 18 18 18 18 18 18 18 18 18 18 19 19 20 20 21 20 21 21 21 22 22 22 22 22 22 22 22 22 22
20 20 19 19 19 20 20 20 19 19 18 19 20 20 20 19 20 20 20 20 19 19 20 20 20 21 21 21 21 22 22 22 22 23 23 23 24 24 24 23 24 24 23
22 21 21 20 21 21 21 20 20 20 20 20 21 21 21 21 22 22 21 21 21 21 21 22 23 23 23 22 22 23 24 24 24 24 24 24 24 24 24 24 24 24 24
24 24 23 22 22 23 22 22 22 23 22 22 23 23 23 23 23 23 23 23 23 23 23 23 24 24 25 24 24 24 24 24 25 25 24 25 25 25 25 25 25 25 25
26 26 25 24 24 25 25 25 24 24 24 24 25 24 24 25 25 25 24 25 25 25 25 25 25 25 26 25 24 24 24 25 25 25 25 25 25 26 26 25 26 26 26
27 27 26 26 26 26 27 27 26 26 26 25 25 26 26 26 26 25 25 26 26 26 26 26 26 26 26 27 26 26 26 26 26 26 25 26 26 26 26 26 27 27 27
27 28 28 27 27 28 28 28 28 27 27 27 27 28 28 27 26 26 26 26 27 27 27 27 26 27 27 27 27 27 27 27 27 27 27 27 27 27 27 28 29 29 29
28 28 28 28 28 29 29 29 29 29 28 28 29 29 28 27 27 27 27 27 28 28 28 28 27 27 28 28 28 28 28 28 28 28 27 27 27 28 29 29 30 30 30
29 30 29 29 29 30 30 30 30 30 29 29 29 29 29 28 28 29 29 29 29 29 29 29 29 29 29 29 29 29 30 29 29 29 28 28 28 29 29 30 31 32 32
30 30 31 31 31 31 31 31 30 29 30 30 30 30 30 30 30 30 29 29 30 30 30 30 30 30 30 31 31 31 31 31 30 30 30 30 30 30 30 31 31 31 32
32 32 32 31 32 32 31 31 31 31 32 32 31 31 31 31 30 30 30 29 30 30 31 31 31 31 32 31 31 30 30 30 30 31 31 31 31 31 31 31 32 32 32
32 32 32 32 32 33 32 32 33 33 33 32 32 33 32 31 30 30 30 31 31 32 32 32 32 33 32 32 31 30 29 30 30 31 31 31 31 31 31 31 31 32 33
33 33 33 33 33 33 33 34 35 34 34 33 33 33 33 33 32 31 32 33 33 33 33 33 33 34 33 32 31 30 30 30 30 30 30 30 30 30 30 30 30 31 32
33 33 33 33 34 34 35 35 36 35 35 34 34 34 35 34 34 33 34 34 34 34 34 34 33 32 32 31 31 31 30 30 30 29 29 29 29 29 29 30 30 30 30
Wind_Direction
336 325 311 315 311 303 304 306 308 302 288 277 271 262 259 259 262 264 264 258 252 251 253 257 259 259 264 262 260 267 267 265 263 262 264 263 264 263 262 263 258 259 257
333 331 330 321 319 312 308 306 307 304 290 288 281 267 263 264 265 263 262 262 260 255 255 259 262 262 264 263 262 266 265 263 262 260 260 260 259 257 257 261 264 261 259
336 329 329 327 323 316 309 309 303 303 306 302 288 275 271 268 264 265 265 267 264 261 259 262 264 267 266 264 267 267 266 264 263 264 262 260 260 261 260 258 261 259 259
331 330 327 327 326 323 317 308 304 311 310 304 293 283 278 269 269 270 269 270 268 266 266 266 266 269 267 266 269 272 275 271 269 267 267 265 262 264 263 261 261 260 258
337 334 330 328 331 328 322 315 313 312 307 301 297 288 281 274 273 276 277 274 270 268 269 268 267 270 268 267 269 271 273 274 271 267 266 268 267 266 262 264 263 262 260
339 337 331 324 324 326 326 322 315 314 308 301 294 289 288 290 282 282 282 280 275 273 273 269 268 272 274 273 270 272 272 272 271 266 264 264 264 266 266 266 266 265 264
336 334 336 333 330 327 326 326 322 319 314 310 302 296 297 294 288 286 286 284 280 275 274 274 272 272 271 272 273 271 271 272 272 268 265 264 264 265 268 266 266 267 267
330 331 332 332 328 326 329 326 327 324 320 313 305 302 299 295 292 292 291 289 286 285 280 278 276 275 276 275 275 274 272 272 271 269 269 269 269 270 269 266 266 267 267
325 323 321 323 323 325 325 325 326 324 319 316 309 306 304 301 300 300 298 297 292 289 287 283 284 280 278 277 278 278 276 273 271 270 269 270 272 272 271 270 269 268 267
322 322 319 320 319 318 318 319 320 321 319 317 312 308 306 304 300 300 299 297 297 295 293 294 293 291 286 282 282 284 279 277 275 272 272 272 273 273 272 270 269 267 265
318 318 318 318 316 315 315 317 315 315 316 314 311 308 305 301 299 297 296 295 294 294 294 293 292 290 288 284 283 283 284 280 279 276 274 274 273 274 273 271 268 268 267
316 316 315 313 313 312 311 311 312 312 311 310 308 305 303 300 297 293 292 291 292 291 290 291 290 289 288 287 283 281 282 282 278 277 275 274 274 273 273 273 269 267 265
316 313 312 311 309 308 308 308 308 306 305 305 304 303 302 300 297 294 292 290 291 290 289 288 288 287 287 287 285 282 282 282 280 276 275 274 274 273 274 273 270 267 265
313 311 310 309 307 307 306 304 304 303 302 302 302 300 300 298 295 294 291 289 290 289 289 288 287 287 286 285 284 283 283 282 283 277 274 274 274 273 273 272 270 268 266
311 309 307 306 306 306 303 301 301 301 300 300 300 299 297 295 293 292 291 289 288 287 287 287 286 285 284 284 284 284 282 282 282 279 275 275 275 274 273 272 271 269 268
308 308 305 305 304 303 302 300 300 299 299 298 299 299 297 293 292 290 289 288 287 285 285 285 285 285 284 284 284 284 283 282 281 280 278 275 274 273 273 273 271 269 268
306 306 305 303 304 302 300 298 297 297 297 297 298 297 297 295 292 289 288 287 287 287 287 285 284 284 284 283 282 282 282 282 280 279 278 278 275 273 272 272 271 270 269
304 304 304 302 301 300 299 296 295 294 294 295 296 296 296 295 294 291 287 286 287 287 287 287 286 286 285 285 285 283 283 282 279 278 278 277 276 274 271 270 271 271 271
302 303 304 301 300 301 299 295 294 292 293 294 295 296 296 295 293 291 289 287 287 287 287 287 287 287 287 285 285 284 284 282 281 280 278 277 278 277 275 272 271 272 272
302 304 303 302 302 301 300 297 295 292 293 294 295 295 294 293 292 291 288 288 287 286 286 287 287 287 287 285 284 283 283 283 281 279 278 277 278 278 276 274 272 272 272
301 302 303 302 301 301 299 297 295 294 293 294 294 294 295 294 293 292 289 287 287 287 287 287 287 288 287 285 284 282 282 281 281 279 277 278 278 278 277 275 273 272 271
299 300 300 300 299 300 300 298 296 295 295 294 293 292 293 293 293 293 291 289 287 287 287 287 287 287 287 286 284 283 282 280 279 278 279 279 279 278 277 275 274 271 271
298 298 299 300 301 301 300 298 297 296 295 294 293 292 292 291 290 289 288 289 289 288 288 287 286 287 286 285 285 283 282 280 280 280 280 280 280 279 277 275 274 273 271
297 297 298 299 300 299 299 297 297 297 295 295 295 293 291 289 287 286 285 286 287 288 288 287 288 288 286 285 283 283 282 282 282 282 281 280 279 278 277 276 275 272 271
295 295 295 297 298 298 297 296 297 296 295 293 293 292 290 289 288 288 288 288 288 288 288 288 288 288 287 286 284 284 283 283 283 284 284 282 280 278 277 277 277 275 273
294 295 296 297 297 297 297 296 296 296 295 294 292 291 291 290 289 288 289 289 288 288 288 288 287 287 287 287 285 285 284 283 284 285 285 283 282 281 279 278 278 278 276
Height
5888 5887 5887 5886 5885 5885 5885 5884 5884 5884 5884 5884 5884 5884 5884 5885 5885 5885 5886 5886 5887 5888 5889 5890 5890 5890 5891 5891 5891 5892 5892 5892 5893 5894 5894 5894 5894 5895 5895 5895 5896 5897 5897
5888 5887 5885 5885 5884 5884 5884 5884 5883 5883 5882 5882 5882 5882 5883 5883 5883 5884 5884 5885 5885 5886 5887 5888 5888 5888 5889 5889 5889 5890 5890 5890 5891 5891 5892 5892 5892 5893 5893 5894 5894 5895 5895
5888 5887 5886 5885 5884 5883 5883 5882 5883 5881 5881 5881 5880 5880 5881 5881 5881 5882 5882 5883 5883 5883 5884 5885 5885 5886 5886 5887 5887 5887 5888 5888 5888 5889 5890 5890 5890 5891 5891 5891 5892 5892 5893
5888 5887 5886 5885 5883 5882 5882 5882 5881 5881 5880 5879 5879 5879 5879 5879 5879 5880 5880 5880 5881 5881 5882 5882 5883 5883 5883 5884 5885 5885 5885 5885 5886 5886 5887 5887 5888 5888 5888 5889 5889 5889 5890
5887 5886 5885 5884 5883 5882 5882 5881 5880 5880 5879 5878 5877 5877 5877 5877 5877 5877 5877 5877 5878 5879 5879 5880 5880 5880 5880 5881 5882 5882 5882 5882 5883 5883 5884 5884 5885 5885 5885 5886 5886 5886 5887
5887 5886 5885 5884 5883 5882 5881 5880 5879 5879 5878 5877 5876 5876 5875 5875 5874 5875 5875 5875 5876 5876 5876 5877 5877 5877 5878 5878 5878 5879 5879 5879 5880 5880 5880 5881 5881 5881 5882 5882 5882 5883 5883
5887 5886 5885 5884 5883 5882 5881 5879 5878 5877 5877 5875 5875 5874 5874 5874 5873 5873 5873 5873 5873 5873 5873 5874 5874 5874 5874 5875 5875 5875 5875 5876 5876 5876 5877 5877 5877 5878 5878 5878 5879 5879 5879
5887 5886 5885 5884 5882 5881 5880 5878 5877 5876 5875 5874 5874 5873 5873 5873 5872 5872 5871 5871 5871 5870 5870 5871 5871 5871 5871 5871 5871 5872 5872 5872 5872 5872 5873 5873 5873 5874 5874 5874 5874 5875 5875
5886 5885 5884 5883 5881 5880 5879 5877 5876 5875 5874 5873 5872 5871 5871 5871 5870 5870 5869 5868 5868 5868 5868 5867 5867 5867 5867 5868 5868 5868 5868 5868 5868 5868 5868 5869 5869 5870 5870 5870 5870 5870 5871
5884 5883 5882 5881 5880 5878 5877 5876 5874 5873 5872 5871 5870 5869 5868 5868 5868 5868 5867 5866 5865 5865 5864 5864 5864 5863 5864 5864 5863 5863 5864 5863 5863 5864 5864 5864 5865 5865 5865 5865 5865 5866 5866
5883 5881 5880 5879 5877 5876 5875 5873 5871 5870 5869 5868 5868 5867 5866 5865 5864 5864 5864 5863 5863 5862 5861 5861 5860 5860 5860 5860 5859 5859 5859 5859 5859 5859 5859 5860 5860 5860 5860 5860 5860 5860 5861
5880 5879 5878 5876 5875 5873 5872 5870 5869 5868 5866 5865 5864 5864 5863 5862 5861 5861 5860 5860 5859 5859 5858 5857 5856 5856 5855 5855 5855 5854 5854 5854 5854 5853 5853 5854 5854 5854 5854 5854 5854 5855 5855
5878 5876 5874 5873 5871 5870 5868 5867 5866 5864 5863 5862 5861 5860 5859 5858 5857 5857 5856 5856 5855 5854 5854 5853 5852 5851 5851 5850 5849 5849 5849 5848 5848 5848 5848 5848 5848 5848 5848 5848 5848 5848 5849
5874 5873 5871 5869 5867 5866 5864 5863 5862 5860 5859 5858 5857 5855 5854 5853 5853 5852 5851 5851 5850 5850 5849 5848 5847 5846 5845 5845 5844 5843 5843 5842 5842 5842 5842 5842 5842 5842 5842 5841 5841 5842 5842
5871 5869 5867 5865 5864 5862 5860 5859 5857 5856 5855 5854 5852 5851 5849 5848 5847 5846 5846 5845 5845 5844 5843 5842 5841 5840 5839 5839 5838 5837 5837 5836 5836 5835 5835 5835 5835 5835 5835 5835 5835 5835 5835
5866 5865 5863 5861 5859 5857 5856 5854 5853 5851 5850 5848 5847 5845 5844 5842 5841 5840 5839 5839 5838 5837 5837 5836 5835 5834 5833 5832 5832 5830 5830 5829 5829 5828 5828 5828 5828 5828 5827 5827 5828 5828 5828
5861 5860 5858 5856 5854 5853 5851 5849 5847 5846 5844 5843 5841 5839 5838 5836 5835 5834 5833 5832 5831 5830 5829 5829 5828 5827 5826 5825 5825 5824 5823 5822 5822 5821 5820 5820 5820 5820 5820 5820 5820 5820 5820
5856 5855 5853 5850 5849 5847 5845 5843 5841 5840 5838 5836 5835 5833 5831 5829 5828 5826 5825 5825 5824 5823 5822 5822 5820 5820 5819 5818 5817 5816 5816 5815 5814 5813 5813 5813 5812 5812 5812 5812 5812 5812 5812
5851 5849 5847 5845 5842 5840 5838 5836 5834 5833 5831 5830 5828 5826 5824 5822 5821 5819 5818 5817 5816 5815 5815 5814 5813 5812 5811 5811 5810 5809 5808 5807 5806 5805 5805 5805 5804 5804 5804 5804 5804 5804 5804
5845 5842 5840 5838 5836 5833 5831 5829 5827 5825 5823 5822 5820 5818 5816 5815 5813 5812 5811 5810 5809 5807 5807 5806 5805 5804 5803 5802 5802 5801 5800 5799 5798 5797 5796 5796 5795 5795 5795 5795 5795 5794 5794
5838 5836 5833 5831 5829 5826 5824 5822 5819 5817 5815 5814 5812 5810 5808 5807 5805 5804 5802 5801 5800 5799 5799 5798 5797 5796 5795 5794 5793 5792 5791 5790 5789 5788 5788 5787 5786 5786 5785 5785 5785 5785 5785
5831 5829 5826 5824 5821 5819 5817 5814 5811 5809 5808 5806 5804 5802 5800 5798 5797 5795 5793 5792 5792 5791 5790 5789 5788 5787 5786 5784 5783 5782 5781 5781 5780 5779 5778 5778 5777 5776 5775 5775 5774 5774 5774
5824 5821 5819 5817 5814 5812 5809 5806 5804 5801 5799 5797 5795 5793 5790 5789 5788 5786 5785 5784 5783 5781 5781 5780 5779 5777 5776 5775 5774 5772 5771 5770 5770 5769 5768 5768 5767 5766 5765 5765 5764 5764 5764
5816 5813 5811 5809 5806 5803 5801 5798 5796 5793 5791 5788 5786 5784 5782 5780 5779 5778 5777 5776 5774 5773 5771 5770 5769 5767 5766 5765 5764 5763 5762 5761 5760 5759 5758 5757 5757 5756 5755 5754 5754 5753 5753
5808 5805 5803 5800 5798 5795 5793 5790 5787 5785 5782 5780 5778 5776 5774 5772 5770 5769 5768 5767 5765 5763 5762 5760 5759 5758 5756 5755 5754 5753 5752 5751 5750 5749 5748 5747 5746 5745 5745 5744 5744 5743 5743
5799 5797 5795 5792 5789 5787 5784 5781 5778 5776 5773 5771 5768 5766 5764 5762 5761 5759 5758 5757 5755 5754 5752 5751 5749 5748 5747 5746 5744 5743 5742 5741 5740 5740 5739 5737 5736 5735 5735 5734 5733 5733 5732